• Join FlightAware (Why Join?)
  • Login
  • US Flag 
05:54AM EDT


 

Airport Tracker/Info


-or-


 

Live Flight TrackerFlight Track Log ✈ EGF3994 ✈ 30-Apr-2013 ✈ KORD - KDAY

Flight Track Log - Related Links

Times and Time Zones

All times are in EDT time to prevent confusion due to time zone crossing. See the EGF3994 flight status page for this flight to view local times or setup timezone preferences in your user account.

Time Position Orientation Groundspeed Altitude Reporting Facility
EDT Latitude Longitude Course Direction KTS MPH feet Rate Location/Type
06:43PM 41.9333 -87.8500 95° East 223 257 3,300  Level Chicago TRACON
06:44PM 41.9500 -87.7667 75° East 266 306 5,700 2,100 Climbing Chicago TRACON
06:46PM 41.9636 -87.5825 84° East 298 343 9,600 1,860 Climbing Chicago Center
06:47PM 41.9594 -87.4647 93° East 310 357 11,300 1,860 Climbing Chicago Center
06:48PM 41.9531 -87.3092 93° East 347 399 13,500 1,860 Climbing Chicago Center
06:49PM 41.9352 -87.1586 95° East  Level FlightAware Approximate
06:49PM 41.9481 -87.1778 93° East 353 406 15,200  Level Chicago Center
06:50PM 41.9444 -87.0414 92° East 363 418 17,000 1,680 Climbing Chicago Center
06:51PM 41.9464 -86.9039 89° East 368 423 18,700 960 Climbing Chicago Center
06:52PM 41.9497 -86.7600 88° East 384 442 19,100 960 Climbing Chicago Center
06:53PM 41.9508 -86.5967 89° East 403 464 20,800 1,500 Climbing Chicago Center
06:54PM 41.9531 -86.4453 89° East 405 466 22,200 1,020 Climbing Chicago Center
06:55PM 41.9467 -86.2958 93° East 408 470 23,000 360 Climbing Chicago Center
06:56PM 41.8844 -86.1219 116° Southeast 433 498 23,000  Level Chicago Center
06:58PM 41.8144 -85.9889 125° Southeast 444 511 23,000  Level Chicago Center
06:59PM 41.7231 -85.8792 138° Southeast 444 511 23,000  Level Chicago Center
07:00PM 41.6344 -85.7667 136° Southeast 443 510 23,000  Level Chicago Center
07:01PM 41.5486 -85.6525 135° Southeast 443 510 23,000  Level Chicago Center
07:02PM 41.4453 -85.5164 135° Southeast 444 511 23,000  Level Chicago Center
07:03PM 41.3594 -85.4019 135° Southeast 444 511 23,000  Level Chicago Center
07:04PM 41.2714 -85.2886 136° Southeast 445 512 23,000 -300 Level Chicago Center
07:05PM 41.1847 -85.1753 135° Southeast 442 509 22,500 -1,020 Descending Chicago Center
07:06PM 41.0994 -85.0642 136° Southeast 436 502 21,000 -1,680 Descending Chicago Center
07:07PM 41.0028 -84.9428 137° Southeast 408 470 19,100 -2,220 Descending Chicago Center
07:08PM 40.9264 -84.8431 135° Southeast 393 452 16,500 -2,040 Descending Chicago Center
07:09PM 40.8469 -84.7444 137° Southeast 392 451 15,000 -780 Descending Chicago Center
07:10PM 40.7669 -84.6422 136° Southeast 397 457 15,000 -60 Level Chicago Center
07:11PM 40.6867 -84.5411 136° Southeast 401 461 14,900 -960 Descending Chicago Center
07:12PM 40.6239 -84.4644 137° Southeast 401 461 13,400 -2,160 Descending Indianapolis Center
07:12PM 40.5675 -84.4250 152° Southeast 382 440 12,300 -1,980 Descending Indianapolis Center
07:13PM 40.5278 -84.4206 175° South 379 436 11,400 -1,740 Descending Indianapolis Center
07:13PM 40.4581 -84.4047 170° South 361 415 10,400 -1,260 Descending Indianapolis Center
07:14PM 40.4283 -84.3997 173° South 364 419 10,100 -600 Descending Indianapolis Center
07:14PM 40.3939 -84.3931 172° South 345 397 10,000 -120 Descending Indianapolis Center
07:15PM 40.3344 -84.3806 171° South 346 398 10,000  Level Indianapolis Center
07:15PM 40.2761 -84.3717 173° South 341 392 10,000 -420 Level Indianapolis Center
07:16PM 40.2311 -84.3614 170° South 324 373 9,600 -1,020 Descending Indianapolis Center
07:16PM 40.1997 -84.3583 176° South 268 308 9,000 -1,500 Descending Indianapolis Center
07:17PM 40.1578 -84.3619 184° South 274 315 8,100 -1,560 Descending Indianapolis Center
07:17PM 40.1128 -84.3686 186° South 270 311 7,300 -1,500 Descending Indianapolis Center
07:18PM 40.0814 -84.3722 185° South 270 311 6,600 -1,500 Descending Indianapolis Center
07:18PM 40.0556 -84.3772 188° South 273 314 6,100 -1,500 Descending Indianapolis Center
07:19PM 40.0067 -84.3856 187° South 271 312 5,100 -1,500 Descending Indianapolis Center
07:19PM 39.9772 -84.3883 184° South 260 299 4,600 -1,260 Descending Indianapolis Center
07:20PM 39.9381 -84.3722 162° South 258 297 3,800 -1,320 Descending Indianapolis Center
07:20PM 39.9164 -84.3611 159° South 228 262 3,300 -1,500 Descending Indianapolis Center
07:21PM 39.8847 -84.3333 146° Southeast 235 270 2,300 -1,200 Descending Indianapolis Center
07:21PM 39.8783 -84.3125 112° Southeast 172 198 2,100 -300 Descending Indianapolis Center
07:22PM 39.8647 -84.2739 115° Southeast 213 245 2,000 -840 Descending Indianapolis Center
07:22PM 39.8869 -84.2592 27° Northeast 145 167 1,300 -2,640 Descending Indianapolis Center